www.pogodaiklimat.ru

Погода и климат >> Архив погоды >> Сербия >> Палич


ПОГОДА в Паличе

  • Прогноз погоды в Паличе
  • Монитор погоды в Паличе

АРХИВ ПОГОДЫ в Паличе

Время (UTC), дата Ветер
(напр.,м/с)
 
Видим.   Явления Облачность Т
(С)
Тd
(С)
f
(%)
Тe
(С)
Тes
(С)
Комфортность P
(гПа)
Po
(гПа)
Тmin
(С)
Tmax
(С)
R
(мм)
R24
(мм)
S
(см)
04 13.09 С 2 10 км ясно +13.7 +12.1 90 +13 +13 1029.1 1016.3
05 13.09 С 2 10 км ясно +13.8 +11.9 88 +13 +13 1029.3 1016.5
06 13.09 С 2 10 км ясно +15.5 +12.1 80 +15 +17 1029.2 1016.5 +13.5
07 13.09 С 2 10 км ясно +18.0 +13.4 74 +19 +22 1029.2 1016.6
08 13.09 С 1 10 км ясно +20.2 +14.4 69 +24 +32 комфорт 1029.3 1016.7
09 13.09 С 2 10 км ясно +21.8 +15.9 69 +25 +35 комфорт 1029.2 1016.7
10 13.09 С 3 10 км ясно +23.7 +14.7 57 +26 +36 жарко 1029.0 1016.6
11 13.09 С 2 10 км 1/1 1000 м
[Cu hum]
+25.1 +13.4 48 +27 +37 жарко 1028.6 1016.3
12 13.09 С 2 10 км 1/1 1000 м
[Cu hum]
+25.8 +12.7 44 +28 +37 жарко 1028.2 1015.9
13 13.09 С 2 10 км 1/1 1000 м
[Cu hum]
+26.5 +12.9 43 +28 +35 жарко 1027.7 1015.4
14 13.09 С 1 10 км 1/1 1000 м
[Cu hum]
+26.4 +12.1 41 +28 +33 жарко 1027.4 1015.1
15 13.09 С 2 10 км 1/1 1000 м
[Cu hum]
+26.4 +12.1 41 +28 +30 жарко 1027.4 1015.1
16 13.09 С 2 10 км ясно +25.2 +12.6 45 +27 +27 жарко 1026.9 1014.6
17 13.09 С 2 10 км ясно +23.4 +13.0 52 +26 +26 жарко 1027.3 1014.9
18 13.09 С 1 10 км ясно +20.6 +15.4 72 +25 +25 комфорт 1027.6 1015.1 +26.8
19 13.09 С 1 10 км ясно +18.8 +14.3 75 +21 +21 комфорт 1028.1 1015.5
20 13.09 С 1 10 км ясно +19.1 +13.4 70 +21 +21 комфорт 1028.4 1015.8
21 13.09 С 2 10 км ясно +18.4 +12.7 69 +19 +19 1028.5 1015.9
22 13.09 С 1 10 км ясно +18.2 +13.6 75 +20 +20 1028.5 1015.9
23 13.09 С 2 10 км ясно +17.7 +14.4 81 +18 +18 1028.4 1015.8
00 14.09 С 2 10 км ясно +17.0 +15.5 91 +17 +17 1027.8 1015.1
01 14.09 С 2 10 км ясно +16.5 +15.7 95 +17 +17 1027.7 1015.0
02 14.09 С 2 10 км ясно +16.2 +15.4 95 +16 +16 1027.6 1014.9
03 14.09 С 2 10 км ясно +15.8 +15.1 96 +16 +16 1027.4 1014.7
04 14.09 С 2 10 км ясно +15.6 +14.9 96 +15 +15 1027.4 1014.7
05 14.09 С 2 10 км ясно +15.5 +14.8 96 +15 +15 1027.4 1014.7
06 14.09 С 2 10 км ясно +16.6 +14.8 89 +17 +18 1027.8 1015.1 +15.5
07 14.09 С 2 10 км ясно +19.2 +14.5 74 +21 +25 комфорт 1028.4 1015.8
08 14.09 СВ 2 10 км ясно +22.1 +16.4 70 +26 +33 душно 1028.4 1015.9
09 14.09 С 3 10 км ясно +23.3 +16.0 64 +28 +36 душно 1028.7 1016.3
10 14.09 С 4 10 км 1/1 1000 м
[Cu hum]
+24.5 +15.3 57 +27 +34 жарко 1028.7 1016.3
11 14.09 СВ 3 10 км 4/4 1000 м
[Cu Sc]
+25.4 +15.1 53 +28 +34 жарко 1028.4 1016.1
12 14.09 СВ 2 10 км 4/4 1000 м
[Cu med, cong]
+25.7 +14.2 49 +28 +34 жарко 1027.8 1015.5
13 14.09 С 2 10 км 5/5 1000 м
[Cu Sc]
+26.2 +14.2 48 +29 +33 жарко 1027.4 1015.1
14 14.09 С 2 10 км 5/5 1000 м
[Cu Sc]
+25.3 +13.9 49 +28 +30 жарко 1027.2 1014.9
15 14.09 С 3 10 км 9/6 1000 м
[Cu Sc Ci fib]
+24.7 +14.3 52 +27 +28 жарко 1027.0 1014.7
16 14.09 С 1 10 км 9/4 1000 м
[Sc Ci fib]
+24.1 +15.5 59 +27 +27 жарко 1027.0 1014.6
17 14.09 С 1 10 км 5/5 1000 м
[Sc]
+22.4 +15.9 67 +27 +27 душно 1027.0 1014.6
18 14.09 С 1 10 км 3/0
[Ac trans Ci fib]
+20.0 +16.2 79 +24 +24 комфорт 1027.4 1014.9 +26.6
19 14.09 штиль 0 10 км 1/0
[Ci fib]
+18.0 +15.8 87 +18 +18 1027.6 1015.0
20 14.09 С 1 10 км ясно +18.0 +14.4 79 +19 +19 1028.0 1015.4
21 14.09 С 2 10 км ясно +17.0 +13.7 81 +17 +17 1028.4 1015.7
22 14.09 С 2 10 км ясно +15.6 +13.2 86 +15 +15 1028.4 1015.7
23 14.09 СВ 2 10 км 1/0
[Ac trans]
+15.3 +10.6 74 +15 +15 1028.7 1015.9
00 15.09 С 1 10 км 1/0
[Ac trans]
+13.6 +9.2 75 +14 +14 1028.7 1015.9
01 15.09 С 1 10 км 1/0
[Ac trans]
+12.3 +8.0 75 +12 +12 1028.7 1015.8
02 15.09 С 1 10 км ясно +11.4 +7.6 77 +11 +11 1028.5 1015.5
03 15.09 С 2 10 км ясно +10.8 +7.7 81 +10 +10 1028.4 1015.4
04 15.09 С 1 10 км ясно +10.2 +7.9 86 +10 +10 1028.4 1015.4
05 15.09 С 1 10 км ясно +10.0 +8.1 88 +9 +10 1028.1 1015.1
06 15.09 С 1 10 км ясно +12.4 +7.5 72 +13 +14 1028.2 1015.3 +9.8
07 15.09 В 2 10 км ясно +16.2 +8.4 60 +16 +20 1028.5 1015.8
08 15.09 С 1 10 км ясно +18.4 +9.4 56 +20 +28 1028.1 1015.5
09 15.09 ЮВ 1 10 км ясно +21.0 +9.6 48 +24 +35 комфорт 1027.9 1015.4
10 15.09 В 1 10 км ясно +22.5 +9.4 43 +24 +37 комфорт 1027.5 1015.1
11 15.09 ЮЗ 1 10 км ясно +23.0 +7.8 38 +24 +37 комфорт 1026.7 1014.3
12 15.09 ЮЗ 1 10 км ясно +24.1 +8.0 36 +25 +36 комфорт 1025.9 1013.7
13 15.09 СЗ 2 10 км ясно +24.8 +8.8 36 +25 +33 комфорт 1025.2 1012.9
14 15.09 З 2 10 км ясно +25.6 +11.2 40 +27 +32 жарко 1023.9 1011.7
15 15.09 СЗ 3 10 км ясно +25.0 +12.1 45 +27 +28 жарко 1023.6 1011.3
16 15.09 С 1 10 км ясно +24.9 +12.4 46 +27 +27 жарко 1023.3 1011.0
17 15.09 С 1 10 км ясно +22.0 +16.6 71 +26 +26 душно 1023.0 1010.6
18 15.09 штиль 0 10 км ясно +18.8 +14.9 78 +20 +20 1023.0 1010.5 +25.8
19 15.09 штиль 0 10 км ясно +17.1 +13.8 81 +17 +17 1022.7 1010.2
20 15.09 штиль 0 10 км ясно +15.8 +14.5 92 +16 +16 1022.8 1010.2
21 15.09 штиль 0 10 км ясно +15.1 +12.9 87 +15 +15 1022.4 1009.7
22 15.09 штиль 0 10 км ясно +14.2 +12.8 91 +14 +14 1022.4 1009.7
23 15.09 штиль 0 10 км ясно +13.4 +12.2 92 +13 +13 1022.3 1009.5
00 16.09 штиль 0 10 км ясно +12.6 +11.5 93 +12 +12 1022.1 1009.3
01 16.09 штиль 0 10 км ясно +12.5 +11.4 93 +12 +12 1021.9 1009.1
02 16.09 штиль 0 10 км ясно +12.3 +11.0 92 +12 +12 1021.4 1008.6
03 16.09 З 1 10 км ясно +12.3 +11.0 92 +12 +12 1020.9 1008.1
04 16.09 З 1 10 км ясно +11.5 +10.8 95 +11 +11 1020.7 1007.9
05 16.09 З 1 10 км ясно +12.3 +11.7 96 +12 +12 1020.6 1007.8
06 16.09 З 1 10 км ясно +15.8 +13.5 86 +16 +18 1020.7 1008.1 +11.5
07 16.09 ЮЗ 2 10 км ясно +19.2 +16.5 84 +21 +25 комфорт 1020.6 1008.1
08 16.09 З 2 10 км ясно +22.4 +16.4 69 +27 +33 душно 1019.9 1007.5
09 16.09 З 3 10 км ясно +24.3 +16.0 60 +28 +35 душно 1019.7 1007.4
10 16.09 З 3 10 км ясно +25.4 +16.4 57 +29 +38 душно 1019.3 1007.1
11 16.09 З 3 10 км ясно +26.2 +15.9 53 +29 +38 жарко 1018.9 1006.7
12 16.09 СЗ 3 10 км ясно +27.0 +15.1 48 +30 +38 душно 1018.0 1005.9
13 16.09 С 3 10 км ясно +27.7 +14.0 43 +30 +36 жарко 1017.2 1005.1
14 16.09 СЗ 2 10 км ясно +28.4 +13.6 40 +30 +35 жарко 1016.7 1004.6
15 16.09 С 2 10 км 3/0
[Ci fib]
+28.3 +13.5 40 +30 +32 жарко 1016.3 1004.2
16 16.09 С 1 10 км 4/0
[Ci fib]
+28.0 +13.7 41 +30 +30 жарко 1015.8 1003.7
17 16.09 штиль 0 10 км 4/0
[Ci sp]
+23.4 +17.0 67 +29 +29 душно 1015.6 1003.4
18 16.09 штиль 0 10 км 5/0
[Ci sp]
+21.4 +16.1 72 +25 +25 комфорт 1015.9 1003.5 +28.6
19 16.09 штиль 0 10 км 5/0
[Ci sp]
+19.9 +16.8 82 +22 +22 комфорт 1015.9 1003.5
20 16.09 З 1 10 км 6/0
[Ci sp]
+19.5 +15.9 80 +23 +23 комфорт 1015.9 1003.5
21 16.09 штиль 0 10 км 1/0
[Ac trans]
+18.9 +16.7 87 +20 +20 1015.9 1003.5
22 16.09 штиль 0 10 км 3/0
[Ac trans]
+18.1 +15.9 87 +18 +18 1016.0 1003.5
23 16.09 штиль 0 10 км 1/0
[Ac trans]
+17.4 +15.3 87 +17 +17 1015.6 1003.1
00 17.09 З 1 10 км 3/0
[Ac trans]
+17.6 +15.7 89 +19 +19 1015.4 1002.9
01 17.09 З 1 10 км 5/0
[Ci sp]
+17.1 +15.6 91 +18 +18 1015.4 1002.9
02 17.09 С 1 10 км 6/0
[Ci sp]
+17.1 +15.6 91 +18 +18 1015.4 1002.9
03 17.09 штиль 0 10 км 9/0
[Ac trans Ci sp]
+16.5 +14.9 90 +16 +16 1015.3 1002.7
04 17.09 штиль 0 10 км 9/0
[Ac trans Ci sp]
+16.3 +14.7 90 +16 +16 1015.6 1003.0
05 17.09 Ю 1 10 км 8/0
[Ac trans Ci sp]
+16.8 +15.0 89 +18 +18 1015.5 1003.0
06 17.09 Ю 2 10 км 9/9
[Sc]
+17.6 +14.5 82 +18 +18 1015.4 1002.9 +16.0
07 17.09 ЮЗ 1 10 км слаб. дождь 10/10 1000 м
[Sc]
+18.8 +15.8 83 +21 +21 комфорт 1015.8 1003.4
08 17.09 З 1 10 км в посл. час дождь 10/10 1000 м
[Sc]
+19.4 +16.4 83 +22 +22 комфорт 1015.9 1003.5
09 17.09 З 2 10 км в посл. час дождь 10/10 1000 м
[Sc]
+20.0 +17.5 86 +24 +24 комфорт 1016.1 1003.7
10 17.09 СЗ 1 10 км 10/10 1000 м
[Sc]
+20.8 +17.7 82 +26 +26 душно 1016.0 1003.7
11 17.09 З 2 10 км 6/6 1000 м
[Sc]
+24.0 +17.7 68 +28 +32 душно 1015.6 1003.4
12 17.09 С 2 10 км {дождь} 8/8 1000 м
[Sc]
+24.8 +15.1 55 +28 +30 жарко 1015.2 1003.0 0.3
13 17.09 С 3 10 км 8/8 1000 м
[Cu Sc]
+24.9 +14.7 53 +28 +29 жарко 1014.9 1002.7
14 17.09 С 3 10 км 8/8 1000 м
[Cu Sc]
+25.2 +14.1 50 +28 +28 жарко 1014.4 1002.2
15 17.09 С 3 10 км 3/3 1000 м
[Sc]
+23.6 +13.3 52 +26 +27 жарко 1013.9 1001.7
16 17.09 С 1 10 км 5/5 1000 м
[Sc]
+22.6 +13.9 58 +26 +26 жарко 1013.6 1001.4
17 17.09 С 1 10 км 6/6 1000 м
[Sc]
+21.0 +15.3 70 +25 +25 комфорт 1013.6 1001.3
18 17.09 штиль 0 10 км 8/8 1000 м
[Sc]
+19.9 +16.1 79 +22 +22 комфорт 1013.7 1001.3 +25.9 0.3
19 17.09 С 1 10 км 6/6 1000 м
[Sc]
+19.2 +16.7 85 +22 +22 комфорт 1014.1 1001.7
20 17.09 С 1 10 км 8/8 1000 м
[Sc]
+18.2 +16.8 92 +20 +20 1014.2 1001.7
21 17.09 СВ 1 10 км 8/8 1000 м
[Sc]
+18.1 +17.0 93 +19 +19 1014.3 1001.8
22 17.09 С 1 10 км 10/10 1000 м
[Sc]
+18.3 +17.3 94 +20 +20 1014.7 1002.2
23 17.09 С 3 10 км слаб. дождь 10/0
[As op]
+17.5 +17.0 97 +17 +17 1015.4 1002.9
00 18.09 С 2 10 км дождь {ливн. осадки} 10/0
[As op]
+16.3 +16.0 98 +16 +16 1016.0 1003.4 6
01 18.09 СЗ 1 10 км слаб. дождь 10/0
[As op]
+16.2 +15.8 97 +17 +17 1016.1 1003.5
02 18.09 С 2 10 км в посл. час дождь 10/10 1000 м
[Sc]
+16.2 +15.8 97 +16 +16 1016.4 1003.8
03 18.09 С 1 10 км в посл. час дождь 10/10 1000 м
[Sc]
+15.9 +15.5 97 +17 +17 1017.0 1004.4
04 18.09 С 1 10 км 10/10 1000 м
[Sc]
+15.0 +14.5 97 +15 +15 1018.0 1005.4
05 18.09 С 1 10 км 8/8 1000 м
[Sc]
+14.0 +13.1 94 +14 +14 1019.3 1006.6
06 18.09 С 1 10 км {дождь} 6/6 1000 м
[Sc]
+13.6 +12.0 90 +14 +14 1019.8 1007.1 +13.4 9
07 18.09 С 2 10 км 8/8 1000 м
[Sc]
+14.1 +9.6 74 +14 +14 1020.9 1008.2
08 18.09 С 5 10 км 9/9 1000 м
[Sc]
+14.2 +7.0 62 +13 +13 1021.8 1009.1
09 18.09 С 4 10 км 6/6 1000 м
[Sc]
+15.6 +6.5 55 +15 +17 1022.1 1009.5
10 18.09 С 4 10 км 5/5 1000 м
[Sc]
+16.6 +5.3 47 +16 +20 1022.1 1009.5
11 18.09 С 4 10 км 4/4 1000 м
[Sc]
+17.1 +5.0 45 +17 +21 1022.5 1009.9
12 18.09 С 4 10 км 3/3 1000 м
[Sc]
+18.1 +3.6 38 +18 +23 1022.4 1009.8
13 18.09 С 4 10 км 3/3 1000 м
[Sc]
+18.4 +2.9 36 +18 +22 1022.1 1009.5
14 18.09 С 4 10 км 3/3 1000 м
[Sc]
+18.6 +2.4 34 +19 +21 1022.1 1009.5
15 18.09 С 3 10 км 4/4 1000 м
[Sc]
+18.4 +1.7 33 +19 +20 1021.9 1009.3
16 18.09 С 2 10 км 4/4 1000 м
[Sc]
+17.7 +2.7 37 +18 +18 1022.0 1009.4
17 18.09 С 2 10 км 1/1 1000 м
[Sc]
+15.5 +4.7 49 +16 +16 1022.1 1009.4
18 18.09 С 2 10 км 1/1 1000 м
[Sc]
+14.2 +3.7 49 +14 +14 1022.6 1009.8 +18.8
19 18.09 З 2 10 км ясно +12.4 +9.1 80 +12 +12 1023.3 1010.5
20 18.09 СЗ 3 10 км ясно +11.2 +8.2 82 +9 +9 1023.6 1010.7
21 18.09 С 2 10 км ясно +10.6 +8.3 86 +9 +9 1023.8 1010.9
22 18.09 С 1 10 км ясно +9.8 +6.2 78 +9 +9 1023.9 1010.9
23 18.09 СЗ 1 10 км ясно +8.2 +6.2 87 +7 +7 1024.1 1011.0
00 19.09 С 1 10 км 1/0
[Ac trans]
+8.4 +6.4 87 +8 +8 1024.0 1010.9
01 19.09 С 1 10 км 1/0
[Ac trans]
+7.3 +5.4 88 +6 +6 1023.8 1010.7
02 19.09 С 1 10 км 1/0
[Ac trans]
+6.8 +5.1 89 +6 +6 1023.7 1010.6
03 19.09 С 2 10 км 3/0
[Ac trans]
+7.0 +4.9 86 +5 +5 1023.8 1010.7
04 19.09 С 1 10 км 3/0
[Ac trans]
+7.2 +5.1 86 +6 +6 1024.0 1010.9
05 19.09 СЗ 1 10 км 3/0
[Ac trans]
+7.2 +4.7 84 +6 +6 1024.4 1011.3
06 19.09 С 2 10 км 6/6 1000 м
[Sc]
+9.6 +4.7 71 +8 +9 1024.4 1011.4 +6.5
07 19.09 С 2 10 км 5/5 1000 м
[Sc]
+12.7 +5.7 62 +12 +14 1024.7 1011.9
08 19.09 С 2 10 км 5/4 1000 м
[Sc Ci fib]
+15.6 +5.8 52 +16 +19 1024.9 1012.2
09 19.09 С 3 10 км 4/3 1000 м
[Sc Ci fib]
+17.3 +5.5 46 +17 +22 1024.8 1012.2
10 19.09 С 3 10 км 5/3 1000 м
[Cu Sc Ci sp]
+17.3 +5.0 44 +17 +23 1024.7 1012.1
11 19.09 С 2 10 км 5/3 1000 м
[Cu med, cong Ci sp]
+17.8 +4.7 42 +18 +25 1024.4 1011.8
12 19.09 С 3 10 км 4/3 1000 м
[Cu hum Ci fib]
+18.7 +3.1 35 +19 +24 1024.2 1011.7
13 19.09 С 5 10 км 3/1 1000 м
[Cu hum Ci fib]
+18.5 +1.0 31 +18 +21 1023.9 1011.3
14 19.09 С 4 10 км 4/1 1000 м
[Cu hum Ci fib]
+18.7 +1.0 30 +19 +21 1023.4 1010.9
15 19.09 С 3 10 км 4/3 1000 м
[Cu hum Ci fib]
+17.8 +1.9 34 +18 +19 1023.5 1010.9
16 19.09 С 2 10 км 3/0
[Ci fib]
+16.7 +2.8 39 +17 +17 1023.9 1011.3
17 19.09 С 1 10 км 4/0
[Ci fib]
+15.0 +4.6 50 +16 +16 1024.2 1011.5
18 19.09 С 1 10 км ясно +12.4 +4.1 57 +13 +13 1025.0 1012.1 +18.8
19 19.09 С 2 10 км ясно +11.9 +3.7 57 +11 +11 1025.5 1012.6
20 19.09 С 2 10 км ясно +11.2 +2.8 56 +10 +10 1025.9 1013.0
21 19.09 С 2 10 км ясно +10.1 +3.6 64 +9 +9 1026.1 1013.1
22 19.09 С 2 10 км ясно +9.6 +3.8 67 +8 +8 1026.3 1013.3
23 19.09 С 2 10 км ясно +8.6 +4.0 73 +7 +7 1026.8 1013.7
00 20.09 С 2 10 км ясно +7.7 +4.6 81 +6 +6 1026.6 1013.5
01 20.09 С 2 10 км ясно +7.4 +4.9 84 +5 +5 1026.4 1013.3
02 20.09 С 3 10 км ясно +6.8 +5.1 89 +4 +4 1026.4 1013.3
03 20.09 С 2 10 км ясно +6.4 +5.1 91 +4 +4 1026.6 1013.4
04 20.09 С 2 10 км ясно +6.3 +5.2 93 +4 +4 1026.9 1013.7

 

Местоположение метеостанции Палич (Сербия): широта 46.10 долгота 19.77 высота над уровнем моря 105 м.

В архиве по умолчанию представлена погода в Паличе за последнюю неделю. Архивные данные за месяц целиком и за предыдущие месяцы, начиная с января 2011 года, Вы можете получить, выбрав интересующий диапазон дат из раскрывающегося списка и нажав кнопку "Ввод!".


*Определитесь, кто Вы:
робот инопланетянин человек

Внимание! Время в таблицах - всемирное. Для получения местного времени необходимо прибавить поправку, которая равна 1 ч.

Смотрите также архив погоды в соседних городах и на ближайших метеорологических станциях:

Погода в Сегеде (Венгрия) (30 км)
Погода в Байе (Венгрия) (58 км)
Погода в Сомборе (Сербия) (60 км)
Погода в Кикинде (Сербия) (61 км)
Погода в Сынниколау-Маре (Румыния) (66 км)
Погода в Жимболии (Румыния) (80 км)
Погода в Нови-Саде (Сербия) (86 км)
Погода в Пакше (Венгрия) (89 км)
Погода в Кечкемете (Венгрия) (91 км)
Погода в Зренянине (Сербия) (96 км)

Пояснения к столбцам:

Ветер - указаны скорость ветра в м/с - средняя за 10 мин, порывы в срок и между сроками (в фигурных скобках) и направление, откуда дует ветер: С - северный, СВ - северо-восточный, В - восточный, ЮВ - юго-восточный, Ю - южный, ЮЗ - юго-западный, З - западный, СЗ - северо-западный.
Видимость - горизонтальная дальность видимости в метрах или километрах. При видимости от 1 до 10 км при отсутствии осадков обычно наблюдается дымка, при ухудшении видимости до 1 км и менее - туман. В сухую погоду видимость может ухудшаться дымом, пылью или мглою.
Явления - указаны атмосферные явления, наблюдавшиеся в срок или в последний час перед сроком; фигурными скобками обозначены явления, наблюдавшиеся между сроками (за 1-3 часа до срока); квадратными скобками обозначены град или гололедные отложения с указанием их диаметра в мм.
Облачность - указаны через наклонную черту общая и нижняя облачность в баллах и высота нижней границы облаков в метрах; квадратными скобками обозначены формы облаков: Ci - перистые, Cs - перисто-слоистые, Cc - перисто-кучевые, Ac - высококучевые, As - высокослоистые, Sc - слоисто-кучевые, Ns - слоисто-дождевые, Cu - кучевые, Cb - кучево-дождевые. Подробнее классификацию облаков см. в Атласе облаков (PDF).
T - Температура воздуха - температура, измеренная на высоте 2 м над землей.
Td - Температура точки росы - температура, при понижении до которой содержащийся в воздухе водяной пар достигнет насыщения.
f - Относительная влажность воздуха - влажноcть воздуха, измеренная на высоте 2 м над землей.
Te - Эффективная температура - температура, которую ощущает одетый по сезону человек в тени. Характеристика душности погоды. При расчете учитывается влияние влажности воздуха и скорости ветра на теплоощущения человека.
Tes - Эффективная температура на солнце - температура, которую ощущает человек, с поправкой на солнечный нагрев. Характеристика знойности погоды. Зависит от высоты солнца над горизонтом, облачности и скорости ветра. Ночью, в пасмурную погоду, а также при ветре 12 м/с и более поправка равна нулю.
P - Атмосферное давление - приведенное к уровню моря атмосферное давление.
Po - Атмосферное давление - измеренное на уровне метеостанции атмосферное давление.
Tmin - Минимальная температура - минимум температуры воздуха на высоте 2 м над землей.
Tmax - Максимальная температура - максимум температуры воздуха на высоте 2 м над землей.
R - Количество осадков - Количество выпавших осадков за период времени, мм. При наведении курсора мыши на число - период времени, за который выпало указанное количество осадков.
R24 - Количество осадков - Количество выпавших осадков за 24 часа, мм.
S - Снежный покров - Высота снежного покрова, см. При наведении курсора мыши на число - состояние снежного покрова и степень покрытия местности в баллах.